Hlavní strana
METAR-TAF:

METAR-TAF

Letiště :

Asheboro Regional Airport

Asheboro, Severní Karolína, Spojené státy americké

zeměpisná šířka: 35-39-14N, zeměpisná délka: 079-53-42W, výška: 205 m

Aktuální stav počasí

Zpráva byla vytvořena před 24 minutami, v 22:35 UTC
Jihozápadní vítr 8 kt
Teplota 12°C
Vlhkost vzduchu 71%
Tlak 1003 hPa
Viditelnost: 16.1 km
Oblačno až skoro zataženo ve výšce 4900 ft
Zataženo ve výšce 6000 ft

METAR: KHBI 302235Z AUTO 23008KT 10SM BKN049 OVC060 12/07 A2962 RMK AO2 T01220067

Čas: 17:59 (22:59 UTC)


TAF: chybějící

Stav a předpovědi počasí z více než 4 000 letišť (zprávy METAR a TAF).

Červené a žluté tečky na mapě představují dostupné meteorologické stanice.

Když kurzor umístíte na tečku, zobrazí se název stanice.

Pak kliknutím zobrazíte stav a předpověď počasí.

Chcete-li změnit mapu, kliknutím na zelené tlačítko se znaménkem +mapu přiblížíte, kliknutím na zelené tlačítko se znaménkem – mapu oddálíte a kliknutím na zelené šipky přejdete na sousední mapy.


METAR-TAF: